Location: Anmer
(52.8333°N, 0.5833°E)
Time: 11:31:12
(UTC+00:00)

Cosmos 2221 - Pass Details

Date: 15 May 2026
Orbit: 569 x 586 km, 82.5° (Epoch: 6 June)

Event Time Altitude Azimuth Distance (km) Brightness Sun altitude
Exits shadow 23:39:37 32° 219° (SW) 1,012 3.2 -18.0°
Maximum altitude 23:41:21 58° 284° (WNW) 681 2.8 -18.1°
Drops below altitude 10° 23:45:31 10° 4° (N) 1,911 6.3 -18.1°
Sets 23:47:46 0° 9° (N) 2,819 7.5 -18.1°
